Location: Sihaung
(22.8641°N, 94.0549°E)
Time: 12:47:52
(UTC+00:00)

Cosmos 2218 Rocket - Pass Details

Date: 03 March 2021
Orbit: 955 x 1007 km, 82.9° (Epoch: 16 April)

Event Time Altitude Azimuth Distance (km) Brightness Sun altitude
Rises 13:26:09 0° 186° (S) 3,706 7.1 -23.4°
Reaches altitude 10° 13:28:40 10° 187° (S) 2,764 6.4 -24.0°
Maximum altitude 13:35:02 81° 275° (W) 1,019 4.1 -25.4°
Drops below altitude 10° 13:41:27 10° 2° (N) 2,782 6.4 -26.9°
Sets 13:43:59 0° 4° (N) 3,732 7.1 -27.5°
